Location: Feigenhofen
(48.4939°N, 10.7793°E)
Time: 16:13:31
(UTC+00:00)

Helios 1A - Pass Details

Date: 26 May 2022
Orbit: 581 x 600 km, 98.2° (Epoch: 28 June)

Event Time Altitude Azimuth Distance (km) Brightness Sun altitude
Exits shadow 01:16:10 - 152° (SSE) 2,039 5.4 -15.2°
Reaches altitude 10° 01:16:26 10° 151° (SSE) 1,929 5.3 -15.2°
Maximum altitude 01:20:34 61° 72° (ENE) 686 3.5 -14.9°
Drops below altitude 10° 01:24:45 10° 352° (N) 1,953 6.4 -14.5°
Sets 01:26:57 0° 349° (N) 2,862 7.3 -14.3°
